Erie, PA

12:25 PM EDT on October 14, 2019 (GMT -0400)
Erie International

Weather History for KERI - August, 2019

Change the Weather History Date:

Wednesday, August 7, 2019

  Actual Average Record
Temperature  
Mean Temperature 74 °F 71 °F  
Max Temperature 81 °F 79 °F 94 °F (1947)
Min Temperature 66 °F 63 °F 49 °F (1975)
Degree Days  
Heating Degree Days 0 0  
Month to date heating degree days 0 0  
Since 1 June heating degree days 38 68  
Since 1 July heating degree days 0 7  
Cooling Degree Days 9 7  
Month to date cooling degree days 64 49  
Year to date cooling degree days 529 424  
Since 1 June cooling degree days 496 385  
Growing Degree Days 24 (Base 50)    
Moisture  
Dew Point 64 °F    
Average Humidity 68    
Maximum Humidity 93    
Minimum Humidity 42    
Precipitation  
Precipitation 0.21 in 0.12 in 1.26 in (2007)
Month to date precipitation 0.88 0.82  
Year to date precipitation 23.38 23.18  
Snow  
Snow 0.00 in 0.00 in - ()
Month to date snowfall 0.0 0.0  
Since 1 June snowfall 0.0 0.0  
Since 1 July snowfall 0.0 0.0  
Snow Depth 0.00 in    
Sea Level Pressure  
Sea Level Pressure 29.79 in    
Wind  
Wind Speed 6 mph (SW)    
Max Wind Speed 13 mph    
Max Gust Speed 14 mph    
Visibility 8 miles    
Events Rain    
T = Trace of Precipitation, MM = Missing Value Source: NWS Daily Summary

Daily Weather History Graph

Daily Weather History Graph

Search for Another Location

Airport or City:

Astronomy

Aug. 07, 2019 Rise Set
Actual Time 6:19 AM EDT 8:32 PM EDT
Civil Twilight 5:48 AM EDT 9:03 PM EDT
Nautical Twilight 5:10 AM EDT 9:41 PM EDT
Astronomical Twilight 4:28 AM EDT 10:23 PM EDT
Moon 1:58 PM EDT (8/7) 12:10 AM EDT (8/7)
Length of Visible Light 15h 14m
Length of Day
14h 12m
Waxing Crescent, 49% of the Moon is Illuminated
Aug 7
Waxing Crescent
Aug 7
First Quarter
Aug 15
Full
Aug 23
Last Quarter
Aug 30
New

Hourly Weather History & Observations

Time (EDT) Temp. Heat Index Dew Point Humidity Pressure Visibility Wind Dir Wind Speed Gust Speed Precip Events Conditions
12:51 AM 68.0 °F - 64.0 °F 87% 29.78 in 10.0 mi SSE 5.8 mph - 0.00 in   Overcast
1:51 AM 68.0 °F - 64.0 °F 87% 29.78 in 4.0 mi SSE 4.6 mph - 0.02 in Rain Light Rain
2:51 AM 66.9 °F - 63.0 °F 87% 29.77 in 5.0 mi SSE 5.8 mph - 0.07 in Rain Rain
3:51 AM 66.9 °F - 63.0 °F 87% 29.77 in 4.0 mi Calm Calm - 0.06 in Rain Light Rain
4:01 AM 66.9 °F - 64.0 °F 90% 29.78 in 2.0 mi Calm Calm - 0.02 in Rain Light Rain
4:15 AM 66.9 °F - 63.0 °F 87% 29.78 in 3.0 mi Calm Calm - 0.04 in Rain Light Rain
4:51 AM 66.9 °F - 64.0 °F 90% 29.77 in 6.0 mi ESE 3.5 mph - 0.05 in   Overcast
5:17 AM 66.9 °F - 64.0 °F 90% 29.78 in 10.0 mi Calm Calm - N/A   Overcast
5:38 AM 66.9 °F - 64.0 °F 90% 29.79 in 10.0 mi Calm Calm - N/A   Overcast
5:51 AM 66.9 °F - 64.0 °F 90% 29.78 in 10.0 mi SW 4.6 mph - N/A   Overcast
6:12 AM 66.9 °F - 63.0 °F 87% 29.79 in 10.0 mi SSW 3.5 mph - N/A   Mostly Cloudy
6:51 AM 66.0 °F - 63.0 °F 90% 29.79 in 10.0 mi Calm Calm - N/A   Mostly Cloudy
7:48 AM 68.0 °F - 64.4 °F 88% 29.81 in 10.0 mi SSW 6.9 mph - N/A   Mostly Cloudy
7:51 AM 68.0 °F - 64.0 °F 87% 29.80 in 10.0 mi SSW 5.8 mph - N/A   Mostly Cloudy
7:57 AM 68.0 °F - 64.0 °F 87% 29.80 in 2.5 mi South 5.8 mph - N/A   Mostly Cloudy
8:05 AM 69.1 °F - 64.9 °F 87% 29.81 in 2.0 mi South 4.6 mph - N/A   Scattered Clouds
8:12 AM 69.1 °F - 64.9 °F 87% 29.81 in 10.0 mi South 5.8 mph - N/A   Partly Cloudy
8:43 AM 71.1 °F - 66.0 °F 84% 29.81 in 10.0 mi South 6.9 mph - N/A   Partly Cloudy
8:51 AM 71.1 °F - 66.0 °F 84% 29.80 in 10.0 mi South 6.9 mph - N/A   Partly Cloudy
9:32 AM 73.0 °F - 66.0 °F 79% 29.81 in 10.0 mi SSW 8.1 mph - N/A   Mostly Cloudy
9:51 AM 71.1 °F - 66.0 °F 84% 29.81 in 3.0 mi SSW 9.2 mph - 0.00 in Rain Rain
10:00 AM 71.1 °F - 66.9 °F 87% 29.81 in 7.0 mi South 8.1 mph - 0.01 in Rain Light Rain
10:51 AM 73.0 °F - 66.9 °F 81% 29.80 in 10.0 mi SSW 8.1 mph - 0.01 in   Mostly Cloudy
11:51 AM 75.0 °F - 66.9 °F 76% 29.81 in 10.0 mi WSW 5.8 mph - N/A   Mostly Cloudy
12:23 PM 75.9 °F - 66.0 °F 71% 29.81 in 10.0 mi WNW 8.1 mph - N/A   Mostly Cloudy
12:33 PM 77.0 °F - 66.0 °F 69% 29.82 in 10.0 mi WNW 10.4 mph - N/A   Scattered Clouds
12:51 PM 77.0 °F - 66.9 °F 71% 29.81 in 10.0 mi West 11.5 mph - N/A   Clear
1:51 PM 75.9 °F - 64.9 °F 69% 29.81 in 10.0 mi West 6.9 mph - N/A   Clear
2:51 PM 77.0 °F - 66.0 °F 69% 29.81 in 10.0 mi West 8.1 mph - N/A   Partly Cloudy
3:51 PM 77.0 °F - 64.9 °F 66% 29.79 in 10.0 mi WNW 9.2 mph - N/A   Partly Cloudy
4:51 PM 80.1 °F 81.5 °F 63.0 °F 56% 29.78 in 10.0 mi West 8.1 mph - N/A   Clear
5:51 PM 80.1 °F 80.2 °F 55.9 °F 43% 29.76 in 10.0 mi WSW 6.9 mph - N/A   Clear
6:51 PM 79.0 °F - 59.0 °F 50% 29.76 in 10.0 mi West 8.1 mph - N/A   Clear
7:51 PM 75.9 °F - 62.1 °F 62% 29.78 in 10.0 mi West 6.9 mph - N/A   Clear
8:51 PM 72.0 °F - 63.0 °F 73% 29.78 in 10.0 mi SSE 5.8 mph - N/A   Clear
9:51 PM 70.0 °F - 62.1 °F 76% 29.79 in 10.0 mi Calm Calm - N/A   Clear
10:51 PM 68.0 °F - 62.1 °F 81% 29.79 in 10.0 mi South 4.6 mph - N/A   Partly Cloudy
11:51 PM 68.0 °F - 62.1 °F 81% 29.79 in 10.0 mi South 4.6 mph - N/A   Mostly Cloudy